Flag for Croatia Weather past 2 weeks in Dubrovnik, Croatia

Now
57 °F

Passing clouds.


Feels Like: 54 °F
Forecast: 39 / 54 °F
Wind: 14 mph from Southeast

Location: Dubrovnik / Cilipi

Current Time: Mar 4, 2015 at 8:50:29 PM

Latest Report: Mar 4, 2015 at 8:30 PM


Visibility: N/A

Pressure: 30.04 "Hg

Humidity: 36%

Dew point: 30 °F

Location of DubrovnikLocation

Historic Weather in Dubrovnik — Graph

°F

Dubrovnik temperature yesterday

Maximum temperature yesterday: 63 °F (at 1:00 PM)
Minimum temperature yesterday: 50 °F (at 12:00 AM)
Average temperature yesterday: 55 °F

Past Weeks' High & Low Weather Summary

 TemperatureHumidityPressure
High63 °F (Mar 3, 1:00 PM)100% (Feb 23, 5:00 PM)30.48 "Hg (Feb 23, 5:00 PM)
Low36 °F (Feb 21, 1:00 AM)8% (Feb 18, 5:30 PM)29.53 "Hg (Feb 25, 3:30 AM)
Average50 °F63%29.98 "Hg
* Reported Feb 17 7:00 PM — Mar 4 7:30 PM, Dubrovnik, Weather by CustomWeather, © 2015

Note: Actual official high and low records may vary slightly from our data, if they occured in-between our weather recording intervals... More about our weather records

Advertising

Dubrovnik weather history for previous 24 hours

 ConditionsComfort  
Time TempWeatherWind HumidityBarometerVisibility
7:30 PM
Wed, Mar 4
55 °FPartly cloudy.12 mph38%30.04 "HgN/A
7:00 PM54 °FPartly cloudy.9 mph51%30.07 "HgN/A
6:30 PM55 °FPassing clouds.13 mph41%30.07 "HgN/A
6:00 PM55 °FPassing clouds.10 mph47%30.07 "HgN/A
5:30 PM55 °FScattered clouds.8 mph55%30.09 "HgN/A
5:00 PM55 °FPassing clouds.9 mph59%30.09 "HgN/A
4:30 PM55 °FPassing clouds.13 mph59%30.09 "HgN/A
4:00 PM55 °FScattered clouds.10 mph59%30.09 "HgN/A
3:30 PM55 °FPassing clouds.12 mph59%30.12 "HgN/A
3:00 PM57 °FScattered clouds.12 mph55%30.12 "HgN/A
2:30 PM57 °FScattered clouds.14 mph51%30.12 "HgN/A
2:00 PM57 °FPassing clouds.14 mph44%30.15 "HgN/A
1:30 PM57 °FScattered clouds.10 mph44%30.15 "HgN/A
1:00 PM57 °FScattered clouds.10 mph36%30.18 "HgN/A
12:30 PM57 °FScattered clouds.12 mph39%30.18 "HgN/A
12:00 PM57 °FScattered clouds.12 mph31%30.21 "HgN/A
11:30 AM59 °FPassing clouds.9 mph27%30.21 "HgN/A
11:00 AM59 °FPassing clouds.7 mph23%30.21 "HgN/A
10:30 AM57 °FPassing clouds.7 mph27%30.24 "HgN/A
10:00 AM57 °FPassing clouds.6 mph41%30.24 "HgN/A
9:30 AM59 °FSunny.1 mph34%30.24 "Hg10 mi
9:00 AM55 °FSunny.5 mph41%30.24 "Hg10 mi
8:30 AM54 °FSunny.7 mph35%30.24 "Hg10 mi
8:00 AM50 °FPassing clouds.7 mph47%30.24 "HgN/A
7:30 AM50 °FPassing clouds.5 mph43%30.24 "HgN/A
7:00 AM48 °FSunny.8 mph50%30.24 "Hg10 mi
6:30 AM46 °FSunny.9 mph50%30.24 "Hg10 mi
6:00 AM48 °FClear.8 mph54%30.24 "Hg10 mi
5:30 AM48 °FClear.8 mph43%30.24 "Hg10 mi
5:00 AM48 °FPassing clouds.8 mph40%30.21 "HgN/A
4:30 AM48 °FClear.9 mph43%30.21 "Hg10 mi
4:00 AM48 °FClear.9 mph40%30.21 "Hg10 mi
3:30 AM48 °FClear.8 mph43%30.24 "Hg10 mi
3:00 AM50 °FPassing clouds.10 mph40%30.24 "HgN/A
2:30 AM48 °FClear.6 mph43%30.24 "Hg10 mi
2:00 AM50 °FPassing clouds.8 mph43%30.24 "HgN/A
1:30 AM50 °FPassing clouds.10 mph40%30.24 "HgN/A
1:00 AM50 °FClear.12 mph40%30.24 "Hg10 mi
12:30 AM50 °FPassing clouds.12 mph37%30.24 "HgN/A
12:00 AM50 °FPassing clouds.10 mph37%30.24 "HgN/A
11:30 PM
Tue, Mar 3
50 °FPassing clouds.14 mph40%30.24 "HgN/A
11:00 PM50 °FPassing clouds.15 mph40%30.24 "HgN/A
10:30 PM52 °FClear.13 mph38%30.24 "Hg10 mi
10:00 PM52 °FPassing clouds.15 mph38%30.24 "HgN/A
9:30 PM54 °FPassing clouds.14 mph33%30.24 "HgN/A
9:00 PM54 °FClear.15 mph33%30.21 "Hg10 mi
8:30 PM54 °FPassing clouds.16 mph33%30.21 "HgN/A
8:00 PM55 °FClear.20 mph31%30.21 "Hg10 mi
Weather by CustomWeather, © 2015

See weather overviewHow to use our weather pages